TimeCST,TemperatureF,Dew PointF,Humidity,Sea Level PressureIn,VisibilityMPH,Wind Direction,Wind SpeedMPH,Gust SpeedMPH,PrecipitationIn,Events,Conditions,WindDirDegrees,DateUTC
12:53 AM,50.0,32.0,50,30.37,10.0,East,8.1,-,N/A,,Clear,100,2013-01-19 06:53:00
1:53 AM,48.0,32.0,54,30.36,10.0,East,4.6,-,N/A,,Clear,90,2013-01-19 07:53:00
2:53 AM,46.0,28.0,50,30.36,10.0,East,4.6,-,N/A,,Clear,100,2013-01-19 08:53:00
3:53 AM,45.0,34.0,65,30.37,10.0,North,4.6,-,N/A,,Clear,360,2013-01-19 09:53:00
4:53 AM,45.0,33.1,63,30.37,10.0,NNE,4.6,-,N/A,,Clear,20,2013-01-19 10:53:00
5:53 AM,44.1,34.0,68,30.37,10.0,North,3.5,-,N/A,,Partly Cloudy,10,2013-01-19 11:53:00
6:53 AM,44.1,34.0,68,30.38,10.0,North,4.6,-,N/A,,Clear,10,2013-01-19 12:53:00
7:53 AM,46.9,35.1,63,30.39,10.0,North,6.9,-,N/A,,Clear,10,2013-01-19 13:53:00
8:53 AM,48.9,34.0,56,30.41,10.0,NNE,8.1,-,N/A,,Scattered Clouds,20,2013-01-19 14:53:00
9:53 AM,53.1,34.0,48,30.40,10.0,NE,10.4,-,N/A,,Overcast,50,2013-01-19 15:53:00
10:53 AM,54.0,37.0,53,30.38,10.0,NE,4.6,-,N/A,,Overcast,50,2013-01-19 16:53:00
11:53 AM,57.0,39.0,51,30.33,10.0,NNE,5.8,-,N/A,,Overcast,30,2013-01-19 17:53:00
12:53 PM,59.0,39.9,49,30.30,10.0,NNW,5.8,-,N/A,,Overcast,330,2013-01-19 18:53:00
1:53 PM,61.0,42.1,50,30.27,10.0,North,4.6,-,N/A,,Mostly Cloudy,10,2013-01-19 19:53:00
2:53 PM,63.0,44.1,50,30.25,10.0,North,4.6,-,N/A,,Clear,360,2013-01-19 20:53:00
3:53 PM,61.0,45.0,56,30.25,10.0,Calm,Calm,-,N/A,,Overcast,0,2013-01-19 21:53:00
4:53 PM,59.0,46.9,64,30.26,10.0,Calm,Calm,-,N/A,,Overcast,0,2013-01-19 22:53:00
5:53 PM,57.0,48.0,72,30.26,10.0,Calm,Calm,-,N/A,,Scattered Clouds,0,2013-01-19 23:53:00
6:53 PM,57.0,46.9,69,30.27,10.0,NNE,3.5,-,N/A,,Partly Cloudy,20,2013-01-20 00:53:00
7:53 PM,57.0,46.0,67,30.28,10.0,Calm,Calm,-,N/A,,Scattered Clouds,0,2013-01-20 01:53:00
8:53 PM,54.0,46.9,77,30.26,10.0,NE,3.5,-,N/A,,Partly Cloudy,40,2013-01-20 02:53:00
9:53 PM,55.0,46.0,72,30.25,10.0,Calm,Calm,-,N/A,,Mostly Cloudy,0,2013-01-20 03:53:00
10:53 PM,55.9,46.0,69,30.24,10.0,NE,3.5,-,N/A,,Overcast,40,2013-01-20 04:53:00
11:53 PM,55.9,45.0,67,30.24,10.0,NNW,3.5,-,N/A,,Overcast,340,2013-01-20 05:53:00